• în România
  • Lista ţărilor
  • Pe 7 zile
  • Temperatura apei
  • Hartă satelitară
  • Meteo pe hartă
  • Widget-uri
  • user-avatar
    Intrare

    Meteo pe oră la Yevlakh

    Astăzi, 23 Iunie, Vineri

    Timp Temperatura Precipitaţii Vânt Presiune Umiditate
    00:00 +21°C° 0 mm 1 m/s 758 mmHg 79%
    01:00 +20°C° 0 mm 1 m/s 759 mmHg 78%
    02:00 +20°C° 0 mm 1 m/s 759 mmHg 77%
    03:00 +19°C° 0 mm 2 m/s 759 mmHg 76%
    04:00 +20°C° 0 mm 2 m/s 759 mmHg 72%
    05:00 +21°C° 0 mm 2 m/s 759 mmHg 68%
    06:00 +23°C° 0 mm 2 m/s 759 mmHg 64%
    07:00 +25°C° 0 mm 2 m/s 759 mmHg 58%
    08:00 +26°C° 0 mm 2 m/s 759 mmHg 52%
    09:00 +28°C° 0 mm 3 m/s 759 mmHg 46%
    10:00 +29°C° 0 mm 2 m/s 759 mmHg 43%
    11:00 +30°C° 0 mm 2 m/s 759 mmHg 40%
    12:00 +31°C° 0 mm 1 m/s 759 mmHg 37%
    13:00 +32°C° 0 mm 1 m/s 758 mmHg 36%
    14:00 +32°C° 0 mm 1 m/s 758 mmHg 34%
    15:00 +33°C° 0 mm 1 m/s 758 mmHg 33%
    16:00 +32°C° 0 mm 1 m/s 758 mmHg 35%
    17:00 +32°C° 0 mm 1 m/s 758 mmHg 36%
    18:00 +32°C° 0 mm 1 m/s 758 mmHg 38%
    19:00 +29°C° 0,2 mm 2 m/s 759 mmHg 44%
    20:00 +27°C° 0,2 mm 2 m/s 759 mmHg 49%
    21:00 +25°C° 0,2 mm 3 m/s 760 mmHg 55%
    22:00 +24°C° 0,1 mm 2 m/s 760 mmHg 57%
    23:00 +24°C° 0,1 mm 2 m/s 760 mmHg 60%

    Mâine, 24 Iunie, Sâmbătă

    Timp Temperatura Precipitaţii Vânt Presiune Umiditate
    00:00 +23°C° 0,1 mm 1 m/s 760 mmHg 62%
    01:00 +22°C° 0 mm 1 m/s 760 mmHg 63%
    02:00 +22°C° 0 mm 1 m/s 760 mmHg 64%
    03:00 +22°C° 0 mm 1 m/s 760 mmHg 65%
    04:00 +23°C° 0 mm 1 m/s 760 mmHg 62%
    05:00 +23°C° 0 mm 1 m/s 760 mmHg 59%
    06:00 +24°C° 0 mm 2 m/s 760 mmHg 56%
    07:00 +26°C° 0 mm 2 m/s 760 mmHg 52%
    08:00 +27°C° 0 mm 2 m/s 760 mmHg 48%
    09:00 +28°C° 0 mm 2 m/s 759 mmHg 44%
    10:00 +29°C° 0 mm 2 m/s 759 mmHg 42%
    11:00 +30°C° 0 mm 2 m/s 758 mmHg 39%
    12:00 +32°C° 0 mm 2 m/s 758 mmHg 37%
    13:00 +32°C° 0 mm 2 m/s 757 mmHg 36%
    14:00 +33°C° 0 mm 1 m/s 756 mmHg 34%
    15:00 +33°C° 0 mm 1 m/s 756 mmHg 33%
    16:00 +33°C° 0 mm 1 m/s 756 mmHg 34%
    17:00 +33°C° 0 mm 1 m/s 756 mmHg 35%
    18:00 +32°C° 0 mm 1 m/s 756 mmHg 36%
    19:00 +30°C° 0 mm 1 m/s 756 mmHg 40%
    20:00 +28°C° 0 mm 1 m/s 756 mmHg 45%
    21:00 +26°C° 0 mm 1 m/s 757 mmHg 49%
    22:00 +25°C° 0 mm 1 m/s 757 mmHg 50%
    23:00 +25°C° 0 mm 1 m/s 757 mmHg 50%

    Poimâine, 25 Iunie, Duminică

    Timp Temperatura Precipitaţii Vânt Presiune Umiditate
    00:00 +24°C° 0 mm 1 m/s 757 mmHg 50%
    01:00 +23°C° 0 mm 1 m/s 757 mmHg 51%
    02:00 +23°C° 0 mm 1 m/s 757 mmHg 52%
    03:00 +23°C° 0 mm 1 m/s 757 mmHg 53%
    04:00 +24°C° 0 mm 1 m/s 757 mmHg 50%
    05:00 +25°C° 0 mm 2 m/s 757 mmHg 47%
    06:00 +26°C° 0 mm 3 m/s 757 mmHg 44%
    07:00 +28°C° 0 mm 3 m/s 757 mmHg 39%
    08:00 +30°C° 0 mm 4 m/s 757 mmHg 33%
    09:00 +33°C° 0 mm 5 m/s 757 mmHg 27%
    10:00 +34°C° 0 mm 5 m/s 757 mmHg 25%
    11:00 +36°C° 0 mm 5 m/s 757 mmHg 23%
    12:00 +37°C° 0 mm 5 m/s 757 mmHg 21%
    13:00 +37°C° 0 mm 4 m/s 757 mmHg 21%
    14:00 +38°C° 0 mm 3 m/s 757 mmHg 20%
    15:00 +38°C° 0 mm 2 m/s 757 mmHg 19%
    16:00 +37°C° 0 mm 2 m/s 757 mmHg 22%
    17:00 +37°C° 0 mm 2 m/s 757 mmHg 25%
    18:00 +35°C° 0 mm 1 m/s 757 mmHg 28%
    19:00 +32°C° 0 mm 2 m/s 758 mmHg 34%
    20:00 +30°C° 0 mm 4 m/s 759 mmHg 40%
    21:00 +28°C° 0 mm 5 m/s 760 mmHg 46%
    22:00 +27°C° 0 mm 4 m/s 760 mmHg 51%
    23:00 +26°C° 0 mm 4 m/s 760 mmHg 56%

    26 Iunie, Luni

    Timp Temperatura Precipitaţii Vânt Presiune Umiditate
    00:00 +25°C° 0 mm 3 m/s 761 mmHg 60%
    01:00 +25°C° 0 mm 3 m/s 761 mmHg 62%
    02:00 +24°C° 0 mm 2 m/s 761 mmHg 63%
    03:00 +24°C° 0 mm 2 m/s 761 mmHg 64%
    04:00 +25°C° 0 mm 2 m/s 761 mmHg 61%
    05:00 +25°C° 0 mm 2 m/s 762 mmHg 58%
    06:00 +26°C° 0 mm 3 m/s 762 mmHg 56%
    07:00 +28°C° 0 mm 3 m/s 762 mmHg 51%
    08:00 +29°C° 0 mm 3 m/s 762 mmHg 47%
    09:00 +32°C° 0 mm 4 m/s 762 mmHg 42%
    10:00 +33°C° 0 mm 4 m/s 761 mmHg 40%
    11:00 +34°C° 0 mm 4 m/s 761 mmHg 37%
    12:00 +35°C° 0 mm 4 m/s 760 mmHg 34%
    13:00 +36°C° 0 mm 4 m/s 760 mmHg 33%
    14:00 +36°C° 0 mm 4 m/s 760 mmHg 32%
    15:00 +37°C° 0 mm 4 m/s 759 mmHg 31%
    16:00 +36°C° 0 mm 4 m/s 759 mmHg 32%
    17:00 +36°C° 0 mm 4 m/s 759 mmHg 34%
    18:00 +35°C° 0 mm 4 m/s 759 mmHg 35%
    19:00 +33°C° 0 mm 4 m/s 760 mmHg 39%
    20:00 +30°C° 0 mm 4 m/s 760 mmHg 43%
    21:00 +28°C° 0 mm 4 m/s 761 mmHg 47%
    22:00 +27°C° 0 mm 3 m/s 761 mmHg 50%
    23:00 +26°C° 0 mm 3 m/s 761 mmHg 54%

    27 Iunie, Marţi

    Timp Temperatura Precipitaţii Vânt Presiune Umiditate
    00:00 +25°C° 0 mm 2 m/s 761 mmHg 57%
    01:00 +24°C° 0 mm 2 m/s 761 mmHg 60%
    02:00 +24°C° 0 mm 1 m/s 761 mmHg 62%
    03:00 +23°C° 0 mm 1 m/s 761 mmHg 65%
    04:00 +24°C° 0 mm 1 m/s 761 mmHg 62%
    05:00 +23°C° 0 mm 0 m/s 761 mmHg 59%
    06:00 +24°C° 0 mm 0 m/s 761 mmHg 56%
    07:00 +28°C° 0 mm 1 m/s 760 mmHg 50%
    08:00 +29°C° 0 mm 1 m/s 760 mmHg 44%
    09:00 +31°C° 0 mm 1 m/s 760 mmHg 38%
    10:00 +32°C° 0 mm 1 m/s 759 mmHg 35%
    11:00 +34°C° 0 mm 1 m/s 759 mmHg 32%
    12:00 +35°C° 0 mm 1 m/s 759 mmHg 29%
    13:00 +37°C° 0 mm 2 m/s 758 mmHg 27%
    14:00 +38°C° 0 mm 2 m/s 758 mmHg 26%
    15:00 +38°C° 0 mm 2 m/s 758 mmHg 25%
    16:00 +38°C° 0 mm 2 m/s 758 mmHg 25%
    17:00 +38°C° 0 mm 3 m/s 758 mmHg 26%
    18:00 +37°C° 0 mm 3 m/s 758 mmHg 27%
    19:00 +35°C° 0 mm 3 m/s 758 mmHg 30%
    20:00 +33°C° 0 mm 3 m/s 759 mmHg 33%
    21:00 +30°C° 0 mm 4 m/s 759 mmHg 36%
    22:00 +29°C° 0 mm 3 m/s 759 mmHg 39%
    23:00 +27°C° 0 mm 3 m/s 759 mmHg 41%

    28 Iunie, Miercuri

    Timp Temperatura Precipitaţii Vânt Presiune Umiditate
    00:00 +26°C° 0 mm 2 m/s 759 mmHg 44%
    01:00 +26°C° 0 mm 2 m/s 759 mmHg 45%
    02:00 +25°C° 0 mm 2 m/s 759 mmHg 46%
    03:00 +25°C° 0 mm 1 m/s 759 mmHg 47%
    04:00 +26°C° 0 mm 1 m/s 759 mmHg 45%
    05:00 +27°C° 0 mm 1 m/s 759 mmHg 44%
    06:00 +28°C° 0 mm 1 m/s 759 mmHg 42%
    07:00 +30°C° 0 mm 1 m/s 759 mmHg 37%
    08:00 +31°C° 0 mm 2 m/s 759 mmHg 32%
    09:00 +34°C° 0 mm 2 m/s 759 mmHg 27%
    10:00 +35°C° 0 mm 2 m/s 758 mmHg 25%
    11:00 +37°C° 0 mm 2 m/s 758 mmHg 24%
    12:00 +38°C° 0 mm 3 m/s 757 mmHg 22%
    13:00 +39°C° 0 mm 3 m/s 757 mmHg 21%
    14:00 +39°C° 0 mm 3 m/s 757 mmHg 20%
    15:00 +40°C° 0 mm 3 m/s 756 mmHg 19%
    16:00 +40°C° 0 mm 4 m/s 756 mmHg 20%
    17:00 +40°C° 0 mm 4 m/s 756 mmHg 22%
    18:00 +38°C° 0 mm 4 m/s 756 mmHg 23%
    19:00 +35°C° 0 mm 4 m/s 757 mmHg 27%
    20:00 +33°C° 0 mm 4 m/s 757 mmHg 31%
    21:00 +30°C° 0 mm 4 m/s 758 mmHg 35%
    22:00 +29°C° 0,1 mm 3 m/s 758 mmHg 39%
    23:00 +28°C° 0,1 mm 3 m/s 758 mmHg 43%
    Arată mai mult